Delavan, Wisconsin, United States (53115)
Lat: 42.63N, Lon: 88.64W
Wx Zone: WIZ070
Local Info
Past Weather Observations for Today

NOTE: This archive is for the closest National Weather Service station to Delavan. Information may differ from the station used for current weather conditions.

Click here for Long-term Archive

Time Weather Temperature Dewpoint Humidity Pressure Winds Precip Visibility
13:15
Clear
66°F / 19°C 45°F / 7°C 46% 30.01 in
(1016 mb)
S 4.6 mph
(S 7 kph)
- 10SM
12:55
Partly Cloudy
66°F / 19°C 43°F / 6°C 43% 30.01 in
(1016 mb)
Calm - 10SM
12:35
Mostly Cloudy
64°F / 18°C 43°F / 6°C 46% 30.01 in
(1016 mb)
SW 4.6 mph
(SW 7 kph)
- 10SM
12:15
Partly Cloudy
66°F / 19°C 45°F / 7°C 46% 30.01 in
(1016 mb)
S 8.1 mph
(S 13 kph)
- 10SM
11:55
Partly Cloudy
64°F / 18°C 45°F / 7°C 49% 30.01 in
(1016 mb)
SW 5.8 mph
(SW 9 kph)
- 10SM
11:35
Partly Cloudy
66°F / 19°C 45°F / 7°C 46% 30.01 in
(1016 mb)
S 5.8 mph
(S 9 kph)
- 10SM
11:15
Clear
64°F / 18°C 43°F / 6°C 46% 30.04 in
(1017 mb)
SW 4.6 mph
(SW 7 kph)
- 10SM
10:55
Clear
63°F / 17°C 43°F / 6°C 49% 30.04 in
(1017 mb)
Calm - 10SM
10:35
Partly Cloudy
63°F / 17°C 43°F / 6°C 49% 30.04 in
(1017 mb)
W 4.6 mph
(W 7 kph)
- 10SM
10:15
Partly Cloudy
64°F / 18°C 43°F / 6°C 46% 30.04 in
(1017 mb)
SSW 4.6 mph
(SSW 7 kph)
- 10SM
09:55
Clear
63°F / 17°C 43°F / 6°C 49% 30.04 in
(1017 mb)
SSW 6.9 mph
(SSW 11 kph)
- 10SM
09:35
Clear
63°F / 17°C 43°F / 6°C 49% 30.04 in
(1017 mb)
W 4.6 mph
(W 7 kph)
- 10SM
09:15
Clear
61°F / 16°C 46°F / 8°C 59% 30.04 in
(1017 mb)
SSW 4.6 mph
(SSW 7 kph)
- 10SM
08:55
Clear
59°F / 15°C 48°F / 9°C 68% 30.04 in
(1017 mb)
Calm - 10SM
08:35
Clear
55°F / 13°C 50°F / 10°C 82% 30.04 in
(1017 mb)
Calm - 10SM
08:15
Clear
52°F / 11°C 52°F / 11°C 100% 30.04 in
(1017 mb)
Calm - 10SM
07:55
Clear
48°F / 9°C 48°F / 9°C 100% 30.04 in
(1017 mb)
Calm - 10SM
07:35
Clear
45°F / 7°C 45°F / 7°C 100% 30.04 in
(1017 mb)
Calm - 10SM
07:15
Clear
41°F / 5°C 41°F / 5°C 100% 30.04 in
(1017 mb)
Calm - 10SM
06:55
Clear
41°F / 5°C 41°F / 5°C 100% 30.04 in
(1017 mb)
Calm - 10SM
06:35
Clear
37°F / 3°C 37°F / 3°C 100% 30.06 in
(1018 mb)
Calm - 7SM
06:15
Clear
Fog And Mist
36°F / 2°C 36°F / 2°C 100% 30.06 in
(1018 mb)
Calm - 4SM
05:55
Obscured
Fog
34°F / 1°C 34°F / 1°C 100% 30.06 in
(1018 mb)
Calm - 1/2SM
05:35
Obscured
Fog
36°F / 2°C 36°F / 2°C 100% 30.04 in
(1017 mb)
Calm - 1/4SM
05:15
Obscured
Fog And Mist
34°F / 1°C 34°F / 1°C 100% 30.04 in
(1017 mb)
Calm - 1 1/2SM
04:55
Obscured
Fog
34°F / 1°C 34°F / 1°C 100% 30.04 in
(1017 mb)
Calm - 1/2SM
04:35
Clear
Fog And Mist
36°F / 2°C 36°F / 2°C 100% 30.04 in
(1017 mb)
Calm - 2 1/2SM
04:15
Obscured
Fog And Mist
36°F / 2°C 36°F / 2°C 100% 30.04 in
(1017 mb)
Calm - 1 1/4SM
03:55
Obscured
Fog And Mist
36°F / 2°C 36°F / 2°C 100% 30.04 in
(1017 mb)
Calm - 1 1/4SM
03:35
Obscured
Fog And Mist
36°F / 2°C 36°F / 2°C 100% 30.04 in
(1017 mb)
Calm - 3/4SM
03:15
Obscured
Fog And Mist
37°F / 3°C 37°F / 3°C 100% 30.04 in
(1017 mb)
Calm - 1 1/2SM
02:55
Obscured
Fog And Mist
36°F / 2°C 36°F / 2°C 100% 30.06 in
(1018 mb)
Calm - 1 1/4SM
02:35
Obscured
Fog
36°F / 2°C 36°F / 2°C 100% 30.06 in
(1018 mb)
Calm - 1/4SM
02:15
Obscured
Fog And Mist
37°F / 3°C 37°F / 3°C 100% 30.06 in
(1018 mb)
Calm - 1 3/4SM
01:55
Obscured
Fog
36°F / 2°C 36°F / 2°C 100% 30.06 in
(1018 mb)
Calm - 1/2SM
01:35
Obscured
Fog And Mist
37°F / 3°C 37°F / 3°C 100% 30.06 in
(1018 mb)
Calm - 3/4SM
01:15
Obscured
Fog And Mist
37°F / 3°C 37°F / 3°C 100% 30.06 in
(1018 mb)
Calm - 1SM
00:55
Obscured
Fog And Mist
36°F / 2°C 36°F / 2°C 100% 30.06 in
(1018 mb)
Calm - 1 1/2SM
00:35
Obscured
Fog
39°F / 4°C 39°F / 4°C 100% 30.06 in
(1018 mb)
Calm - 1/2SM
00:15
Obscured
Fog
39°F / 4°C 39°F / 4°C 100% 30.06 in
(1018 mb)
Calm - 1/2SM
Time Weather Temperature Dewpoint Humidity Pressure Winds Precip Visibility


Weather for websites

WeatherForYou.com, LLC is not responsible for any damages or problems caused by this service. Current weather conditions are obtained from the closest station including government and personal stations which may have varying degrees of accuracy. Weather forecasts are derived from the NOAA NDFD. Like all things, this site belongs to Jesus Christ... He just trusts me to maintain it. If you have any questions or comments email webmaster@weatherforyou.com

Copyright © 2014, WeatherForYou.com LLC. All rights reserved.